Weather in Seredyna-Buda

Ukraine / Sumi District     52°11′19″N   34°01′50″E
temp.,
°C
wind,
m/s
gust,
m/s
humid.,
%
clouds,
%
prec.,
mm/h
press.,
hPa
HPBL,
m
27 october, wed
wed2700:00+3ssw51467100 0.0 1026335
03:00+2ssw6147478 0.0 1024329
06:00+2ssw6148155 0.0 1023318
09:00+3sw614815 0.0 1022439
12:00+7wsw710675 0.0 1022649
15:00+8wsw5962100 0.0 1021715
18:00+6w4874100 0.1 1022343
21:00+4wsw378912 0.1 1022125
28 october, thu
thu2800:00+6sw3786100 0.0 1022177
03:00+4sw41094100 0.0 1021240
06:00+6sw61489100 0.3 1018415
09:00+6wsw61391100 1.4 1018527
12:00+7w51194100 0.7 1019484
15:00+8w51195100 1.0 1019460
18:00+10nw4109098 0.1 1020456
21:00+8nw4109487 0.1 1022278
29 october, fri
fri2900:00+5n36933 0.0 1024127
03:00+4nnw22895 0.0 102624
06:00+3nne22915 0.0 102730
09:00+4ene22905 0.0 102980
12:00+9ese22755 0.0 1029416
15:00+10sse116719 0.0 1029608
18:00+7sse11830 0.0 103010
21:00+6sse22880 0.0 103121
30 october, sat
sat3000:00+5s34910 0.0 103153
03:00+4s33912 0.0 103249
06:00+3s35925 0.0 103288
09:00+4s36905 0.0 1033146
12:00+9s45705 0.0 1032428
15:00+11s46655 0.0 1031606
18:00+7s35835 0.0 103171
21:00+6s37885 0.0 1032116
31 october, sun
sun3100:00+5s36892 0.0 1032105
03:00+4s35885 0.0 103285
05:00+4s35875 0.0 103171
08:00+4s36830 0.0 1031132
11:00+10s46600 0.0 1030419
14:00+11s46580 0.0 1028619
17:00+7sse34770 0.0 102848
20:00+6sse38820 0.0 1028141